Lamoni, IA

1:23 PM CST on December 04, 2016 (GMT -0600)
Lamoni Municipal

Weather History for KLWD - November, 2014

Change the Weather History Date:

Saturday, November 22, 2014

  Actual Average Record
Temperature  
Mean Temperature 45 °F 36 °F  
Max Temperature 54 °F 45 °F 71 °F (1966)
Min Temperature 36 °F 27 °F 11 °F (1964)
Degree Days  
Heating Degree Days 20 29  
Month to date heating degree days 684 515  
Since 1 July heating degree days 1110 999  
Cooling Degree Days 0 0  
Month to date cooling degree days 0 0  
Year to date cooling degree days 907 946  
Moisture  
Dew Point 46 °F    
Average Humidity 95    
Maximum Humidity 100    
Minimum Humidity 89    
Precipitation  
Precipitation 0.01 in 0.05 in 0.75 in (1963)
Month to date precipitation 0.33 1.76  
Sea Level Pressure  
Sea Level Pressure 29.85 in    
Wind  
Wind Speed 11 mph (SSW)    
Max Wind Speed 18 mph    
Max Gust Speed 27 mph    
Visibility 4 miles    
Events Fog , Rain    
T = Trace of Precipitation, MM = Missing Value Source: NWS Daily Summary

Daily Weather History Graph

Daily Weather History Graph

Search for Another Location

Airport or City:

Trip Planner

Search our weather history database for the weather conditions in past years. The results will help you decide how hot, cold, wet, or windy it might be!

Date:

Astronomy

Nov. 22, 2014 Rise Set
Actual Time 7:10 AM CST 4:52 PM CST
Civil Twilight 6:40 AM CST 5:22 PM CST
Nautical Twilight 6:07 AM CST 5:56 PM CST
Astronomical Twilight 5:34 AM CST 6:28 PM CST
Moon 7:07 AM CST (11/22) 5:24 PM CST (11/22)
Length of Visible Light 10h 42m
Length of Day
9h 42m
New Moon, 0% of the Moon is Illuminated
Nov 22
New Moon
Nov 29
First Quarter
Dec 6
Full
Dec 14
Last Quarter
Dec 21
New

Hourly Weather History & Observations

Time (CST) Temp. Windchill Dew Point Humidity Pressure Visibility Wind Dir Wind Speed Gust Speed Precip Events Conditions
12:24 AM 36.0 °F 29.6 °F 33.1 °F 89% 30.02 in 10.0 mi South 8.1 mph - N/A   Overcast
12:53 AM 36.0 °F 30.3 °F 33.1 °F 89% 30.04 in 9.0 mi South 6.9 mph - N/A   Overcast
1:53 AM 37.9 °F 31.5 °F 36.0 °F 93% 30.01 in 6.0 mi South 9.2 mph - 0.00 in   Overcast
2:36 AM 39.0 °F 31.8 °F 37.0 °F 93% 29.98 in 6.0 mi South 11.5 mph - N/A   Overcast
2:53 AM 39.0 °F 32.8 °F 37.9 °F 96% 30.01 in 3.0 mi South 9.2 mph - N/A   Overcast
3:01 AM 39.0 °F 33.4 °F 39.0 °F 100% 29.98 in 1.8 mi South 8.1 mph - N/A   Overcast
3:18 AM 39.0 °F 32.3 °F 39.0 °F 100% 29.97 in 0.8 mi South 10.4 mph - N/A   Mist
3:53 AM 39.9 °F 34.5 °F 39.9 °F 100% 29.98 in 0.5 mi South 8.1 mph - N/A Fog Fog
4:53 AM 41.0 °F 36.4 °F 39.9 °F 96% 29.97 in 0.2 mi SW 6.9 mph - N/A Fog Fog
5:53 AM 43.0 °F 36.8 °F 42.1 °F 97% 29.96 in 1.8 mi SW 11.5 mph - N/A   Overcast
5:58 AM 43.0 °F 35.7 °F 42.1 °F 97% 29.93 in 3.0 mi SW 15.0 mph - N/A   Overcast
6:53 AM 42.1 °F 36.1 °F 42.1 °F 100% 29.96 in 4.0 mi SW 10.4 mph - N/A   Mostly Cloudy
7:00 AM 42.1 °F 35.7 °F 41.0 °F 96% 29.93 in 5.0 mi SW 11.5 mph - N/A   Mostly Cloudy
7:11 AM 42.1 °F 35.7 °F 41.0 °F 96% 29.93 in 7.0 mi SW 11.5 mph - N/A   Mostly Cloudy
7:51 AM 42.8 °F 35.8 °F 42.8 °F 100% 29.93 in 10.0 mi SW 13.8 mph - N/A   Overcast
7:53 AM 43.0 °F 36.0 °F 42.1 °F 97% 29.95 in 10.0 mi SW 13.8 mph - N/A   Overcast
8:53 AM 43.0 °F 37.7 °F 42.1 °F 97% 29.95 in 5.0 mi SW 9.2 mph - N/A   Overcast
9:27 AM 45.0 °F 41.8 °F 43.0 °F 93% 29.91 in 4.0 mi SW 5.8 mph - N/A   Overcast
9:50 AM 44.6 °F 39.2 °F 44.6 °F 100% 29.91 in 2.5 mi SSW 10.4 mph - N/A   Overcast
9:53 AM 45.0 °F 38.5 °F 44.1 °F 97% 29.93 in 2.0 mi SSW 13.8 mph - N/A   Overcast
10:02 AM 45.0 °F 40.6 °F 44.1 °F 97% 29.91 in 1.0 mi South 8.1 mph - N/A   Overcast
10:53 AM 46.0 °F 41.9 °F 46.0 °F 100% 29.91 in 1.0 mi South 8.1 mph - N/A   Overcast
11:03 AM 46.9 °F - 46.0 °F 97% 29.88 in 0.8 mi South 9.2 mph - N/A   Overcast
11:53 AM 48.0 °F - 48.0 °F 100% 29.87 in 0.2 mi South 9.2 mph - N/A Fog Fog
12:53 PM 48.9 °F - 48.9 °F 100% 29.83 in 0.5 mi SSW 10.4 mph - N/A Fog Fog
1:53 PM 50.0 °F - 50.0 °F 100% 29.81 in 0.2 mi SSW 9.2 mph - N/A Fog Fog
2:53 PM 51.1 °F - 51.1 °F 100% 29.78 in 0.2 mi South 6.9 mph - N/A Fog Fog
3:53 PM 54.0 °F - 53.1 °F 97% 29.77 in 1.2 mi South 15.0 mph - N/A   Overcast
4:00 PM 54.0 °F - 54.0 °F 100% 29.76 in 3.0 mi SSW 15.0 mph - N/A   Overcast
4:22 PM 54.0 °F - 54.0 °F 100% 29.76 in 2.0 mi South 11.5 mph - N/A   Overcast
4:37 PM 54.0 °F - 54.0 °F 100% 29.76 in 1.8 mi South 16.1 mph 24.2 mph N/A   Overcast
4:53 PM 54.0 °F - 54.0 °F 100% 29.76 in 2.5 mi South 16.1 mph 23.0 mph N/A   Overcast
5:25 PM 54.0 °F - 53.1 °F 97% 29.74 in 1.8 mi South 17.3 mph 25.3 mph 0.00 in Rain Light Rain
5:32 PM 54.0 °F - 53.1 °F 97% 29.73 in 2.0 mi South 13.8 mph 25.3 mph 0.00 in Rain Light Rain
5:48 PM 53.6 °F - 53.6 °F 100% 29.73 in 3.0 mi South 11.5 mph - 0.01 in   Overcast
5:51 PM 53.6 °F - 53.6 °F 100% 29.73 in 3.0 mi South 11.5 mph - 0.01 in   Overcast
5:53 PM 54.0 °F - 53.1 °F 97% 29.74 in 3.0 mi South 10.4 mph - 0.01 in   Overcast
6:48 PM 53.6 °F - 51.8 °F 94% 29.71 in 8.0 mi South 12.7 mph - N/A   Mostly Cloudy
6:53 PM 53.1 °F - 52.0 °F 96% 29.72 in 9.0 mi South 11.5 mph - N/A   Mostly Cloudy
7:53 PM 52.0 °F - 50.0 °F 93% 29.72 in 10.0 mi South 12.7 mph - N/A   Scattered Clouds
8:49 PM 51.8 °F - 48.2 °F 88% 29.70 in 10.0 mi South 10.4 mph - N/A   Mostly Cloudy
8:53 PM 51.1 °F - 48.9 °F 92% 29.71 in 10.0 mi South 13.8 mph - N/A   Mostly Cloudy
9:09 PM 52.0 °F - 50.0 °F 93% 29.69 in 10.0 mi South 16.1 mph - N/A   Overcast
9:53 PM 52.0 °F - 50.0 °F 93% 29.70 in 10.0 mi South 12.7 mph - N/A   Overcast
10:53 PM 53.1 °F - 50.0 °F 89% 29.67 in 10.0 mi South 15.0 mph - N/A   Overcast
11:53 PM 53.1 °F - 50.0 °F 89% 29.67 in 10.0 mi SSW 12.7 mph - N/A   Overcast